Fryeburg, ME

8:02 PM EDT on May 29, 2017 (GMT -0400)
Eastern Slopes Regional

Weather History for KIZG - November, 2012

Change the Weather History Date:

Friday, November 30, 2012

  Actual Average Record
Temperature  
Mean Temperature 20 °F -  
Max Temperature 28 °F 38 °F 62 °F (2006)
Min Temperature 12 °F 20 °F 0 °F (2013)
Degree Days  
Heating Degree Days 45    
Moisture  
Dew Point 3 °F    
Average Humidity 48    
Maximum Humidity 74    
Minimum Humidity 26    
Precipitation  
Precipitation 0.00 in - - ()
Sea Level Pressure  
Sea Level Pressure 30.47 in    
Wind  
Wind Speed 6 mph (North)    
Max Wind Speed 13 mph    
Max Gust Speed 22 mph    
Visibility 10 miles    
Events      
Averages and records for this station are not official NWS values.
T = Trace of Precipitation, MM = Missing Value Source: NWS Daily Summary

Daily Weather History Graph

Daily Weather History Graph

Search for Another Location

Airport or City:

Trip Planner

Search our weather history database for the weather conditions in past years. The results will help you decide how hot, cold, wet, or windy it might be!

Date:

Astronomy

Nov. 30, 2012 Rise Set
Actual Time 6:57 AM EST 4:07 PM EST
Civil Twilight 6:25 AM EST 4:39 PM EST
Nautical Twilight 5:49 AM EST 5:15 PM EST
Astronomical Twilight 5:14 AM EST 5:50 PM EST
Moon 5:59 PM EST 8:27 AM EST
Length of Visible Light 10h 14m
Length of Day
9h 09m
Waning Gibbous, 96% of the Moon is Illuminated
Nov 30
Waning Gibbous
Dec 6
Last Quarter
Dec 13
New
Dec 20
First Quarter
Dec 28
Full

Hourly Weather History & Observations

Time (EST) Temp. Windchill Dew Point Humidity Pressure Visibility Wind Dir Wind Speed Gust Speed Precip Events Conditions
12:54 AM 28.9 °F 18.6 °F 12.9 °F 51% 30.22 in 10.0 mi West 12.7 mph 21.9 mph N/A   Overcast
1:54 AM 28.0 °F 19.3 °F 10.0 °F 47% 30.26 in 10.0 mi WNW 9.2 mph - N/A   Overcast
2:54 AM 25.0 °F 19.3 °F 6.1 °F 45% 30.31 in 10.0 mi NW 4.6 mph - N/A   Scattered Clouds
3:54 AM 21.0 °F 14.6 °F 9.0 °F 60% 30.34 in 10.0 mi North 4.6 mph - N/A   Clear
4:54 AM 18.0 °F - 6.1 °F 60% 30.38 in 10.0 mi Calm Calm - N/A   Clear
5:54 AM 12.9 °F - 6.1 °F 74% 30.42 in 10.0 mi Calm Calm - N/A   Clear
6:54 AM 16.0 °F 6.3 °F 5.0 °F 62% 30.45 in 10.0 mi NNE 6.9 mph - N/A   Clear
7:54 AM 17.1 °F 7.6 °F 3.9 °F 56% 30.48 in 10.0 mi North 6.9 mph - N/A   Clear
8:54 AM 19.0 °F 12.3 °F 5.0 °F 54% 30.49 in 10.0 mi North 4.6 mph - N/A   Clear
9:54 AM 21.9 °F - 3.0 °F 44% 30.51 in 10.0 mi Calm Calm - 0.00 in   Clear
10:54 AM 25.0 °F 20.7 °F 1.0 °F 36% 30.49 in 10.0 mi Variable 3.5 mph - N/A   Clear
11:54 AM 25.0 °F 17.1 °F -2.9 °F 30% 30.48 in 10.0 mi NE 6.9 mph - N/A   Clear
12:54 PM 26.1 °F 20.5 °F -5.1 °F 26% 30.48 in 10.0 mi East 4.6 mph - N/A   Clear
1:54 PM 27.0 °F 23.0 °F -4.0 °F 26% 30.48 in 10.0 mi NE 3.5 mph - 0.00 in   Clear
2:54 PM 26.1 °F - -4.0 °F 27% 30.49 in 10.0 mi Calm Calm - 0.00 in   Clear
3:54 PM 24.1 °F 19.7 °F -4.0 °F 29% 30.51 in 10.0 mi ENE 3.5 mph - 0.00 in   Clear
4:54 PM 21.9 °F 17.2 °F -2.0 °F 35% 30.53 in 10.0 mi NNE 3.5 mph - N/A   Clear
5:54 PM 19.9 °F 14.9 °F -0.0 °F 42% 30.55 in 10.0 mi Variable 3.5 mph - N/A   Clear
6:54 PM 19.0 °F - 1.0 °F 46% 30.58 in 10.0 mi Calm Calm - 0.00 in   Clear
8:54 PM 12.0 °F - 3.0 °F 67% 30.59 in 10.0 mi Calm Calm - N/A   Clear
9:54 PM 14.0 °F 8.2 °F 6.1 °F 71% 30.59 in 10.0 mi WNW 3.5 mph - N/A   Overcast
10:54 PM 16.0 °F - 6.1 °F 65% 30.61 in 10.0 mi Calm Calm - N/A   Overcast